Location: Middle Street
(51.7167°N, 0.0333°E)
Time: 19:54:05
(UTC+00:00)

USA 229 - Pass Details

Date: 20 January 2021
Orbit: 964 x 1248 km, 63.4° (Epoch: 26 February)

Event Time Altitude Azimuth Distance (km) Brightness Sun altitude
Rises 19:38:17 0° 314° (NW) 3,927 7.4 -28.9°
Reaches altitude 10° 19:40:54 10° 314° (NW) 3,006 6.6 -29.4°
Maximum altitude 19:48:07 80° 229° (SW) 1,202 3.9 -30.5°
Enters shadow 19:49:24 64° 161° (SSE) 1,308 3.9 -30.7°
